| time (UTC) | temp F | wind direction | speed MPH | gust MPH | rain 1hr in | rain 24hr in | rain mn in | humidity % | barometer mb |
| 20260905103926 | 61 | 202 | 1.0 | 2.0 | 0.00 | 0.00 | 0.00 | 61 | 1004.0 |
| 20260905102931 | 62 | 0 | 0.0 | 1.0 | 0.00 | 0.00 | 0.00 | 60 | 1003.7 |
| 20260905102119 | 62 | 0 | 0.0 | 1.0 | 0.00 | 0.00 | 0.00 | 61 | 1003.8 |
| 20260905101241 | 62 | 45 | 1.0 | 2.0 | 0.00 | 0.00 | 0.00 | 66 | 1003.8 |
| 20260905100331 | 62 | 90 | 2.0 | 5.0 | 0.00 | 0.00 | 0.00 | 65 | 1003.7 |
| 20260905095506 | 62 | 0 | 0.0 | 2.0 | 0.00 | 0.00 | 0.00 | 63 | 1003.4 |
| 20260905094631 | 62 | 0 | 0.0 | 1.0 | 0.00 | 0.00 | 0.00 | 60 | 1003.3 |
| 20260905093814 | 63 | 0 | 0.0 | 2.0 | 0.00 | 0.00 | 0.00 | 59 | 1003.1 |
| 20260905092916 | 63 | 270 | 1.0 | 3.0 | 0.00 | 0.00 | 0.00 | 57 | 1003.0 |
| 20260905092434 | 64 | 0 | 0.0 | 1.0 | 0.00 | 0.00 | 0.00 | 59 | 1003.2 |
| 20260905092013 | 64 | 0 | 0.0 | 1.0 | 0.00 | 0.00 | 0.00 | 59 | 1003.2 |
| 20260905090135 | 64 | 0 | 0.0 | 2.0 | 0.00 | 0.00 | 0.00 | 55 | 1003.1 |
| 20260905085321 | 65 | 0 | 0.0 | 2.0 | 0.00 | 0.00 | 0.00 | 54 | 1003.1 |
| 20260905084441 | 65 | 0 | 0.0 | 1.0 | 0.00 | 0.00 | 0.00 | 53 | 1003.0 |
| 20260905083516 | 66 | 0 | 0.0 | 1.0 | 0.00 | 0.00 | 0.00 | 52 | 1003.0 |
| 20260905082601 | 66 | 0 | 0.0 | 1.0 | 0.00 | 0.00 | 0.00 | 52 | 1003.0 |
| 20260905081606 | 66 | 45 | 2.0 | 4.0 | 0.00 | 0.00 | 0.00 | 52 | 1003.0 |
| 20260905080621 | 66 | 68 | 2.0 | 4.0 | 0.00 | 0.00 | 0.00 | 56 | 1003.0 |
| 20260905075716 | 67 | 0 | 0.0 | 1.0 | 0.00 | 0.00 | 0.00 | 51 | 1002.9 |
| 20260905074942 | 67 | 0 | 0.0 | 1.0 | 0.00 | 0.00 | 0.00 | 50 | 1002.8 |
| 20260905074900 | 67 | 0 | 0.0 | 1.0 | 0.00 | 0.00 | 0.00 | 50 | 1002.8 |
| 20260905073939 | 68 | 0 | 0.0 | 1.0 | 0.00 | 0.00 | 0.00 | 48 | 1002.9 |
| 20260905072945 | 68 | 0 | 0.0 | 0.0 | 0.00 | 0.00 | 0.00 | 46 | 1002.8 |
| 20260905071956 | 68 | 0 | 0.0 | 1.0 | 0.00 | 0.00 | 0.00 | 45 | 1002.8 |
| 20260905071011 | 69 | 0 | 0.0 | 2.0 | 0.00 | 0.00 | 0.00 | 44 | 1002.8 |
| 20260905065212 | 69 | 270 | 1.0 | 3.0 | 0.00 | 0.00 | 0.00 | 43 | 1002.7 |
| 20260905064246 | 69 | 338 | 2.0 | 3.0 | 0.00 | 0.00 | 0.00 | 45 | 1002.7 |
| 20260905063255 | 68 | 315 | 2.0 | 4.0 | 0.00 | 0.00 | 0.00 | 44 | 1002.7 |
| 20260905062435 | 69 | 315 | 2.0 | 4.0 | 0.00 | 0.00 | 0.00 | 46 | 1002.8 |
| 20260905061521 | 69 | 292 | 1.0 | 2.0 | 0.00 | 0.00 | 0.00 | 44 | 1002.7 |
| 20260905060645 | 69 | 0 | 0.0 | 1.0 | 0.00 | 0.00 | 0.00 | 43 | 1002.7 |
| 20260905055720 | 70 | 270 | 1.0 | 2.0 | 0.00 | 0.00 | 0.00 | 44 | 1002.6 |
| 20260905054859 | 71 | 248 | 1.0 | 2.0 | 0.00 | 0.00 | 0.00 | 47 | 1002.6 |
| 20260905053931 | 71 | 0 | 0.0 | 0.0 | 0.00 | 0.00 | 0.00 | 43 | 1002.5 |
| 20260905052953 | 72 | 0 | 0.0 | 1.0 | 0.00 | 0.00 | 0.00 | 42 | 1002.4 |
| 20260905052031 | 72 | 0 | 0.0 | 2.0 | 0.00 | 0.00 | 0.00 | 41 | 1002.4 |
| 20260905051031 | 73 | 338 | 1.0 | 3.0 | 0.00 | 0.00 | 0.00 | 41 | 1002.5 |
| 20260905050206 | 74 | 338 | 1.0 | 2.0 | 0.00 | 0.00 | 0.00 | 41 | 1002.6 |
| 20260905045320 | 74 | 292 | 1.0 | 3.0 | 0.00 | 0.00 | 0.00 | 42 | 1002.7 |
| 20260905044331 | 74 | 0 | 3.0 | 5.0 | 0.00 | 0.00 | 0.00 | 44 | 1002.8 |
| 20260905043431 | 74 | 0 | 2.0 | 3.0 | 0.00 | 0.00 | 0.00 | 44 | 1002.8 |
| 20260905042506 | 74 | 315 | 1.0 | 2.0 | 0.00 | 0.00 | 0.00 | 45 | 1002.9 |
| 20260905041641 | 74 | 0 | 0.0 | 2.0 | 0.00 | 0.00 | 0.00 | 43 | 1002.9 |
| 20260905040706 | 74 | 0 | 1.0 | 4.0 | 0.00 | 0.00 | 0.00 | 43 | 1002.8 |
| 20260905035836 | 75 | 0 | 1.0 | 2.0 | 0.00 | 0.00 | 0.00 | 45 | 1002.9 |
| 20260905034846 | 75 | 338 | 2.0 | 3.0 | 0.00 | 0.00 | 0.00 | 47 | 1002.9 |
| 20260905034016 | 75 | 158 | 1.0 | 2.0 | 0.00 | 0.00 | 0.00 | 43 | 1003.2 |
| 20260905033026 | 75 | 202 | 1.0 | 2.0 | 0.00 | 0.00 | 0.00 | 44 | 1003.0 |
| 20260905031311 | 74 | 338 | 1.0 | 3.0 | 0.00 | 0.00 | 0.00 | 42 | 1002.8 |
| 20260905030320 | 74 | 315 | 1.0 | 2.0 | 0.00 | 0.00 | 0.00 | 46 | 1002.7 |
| 20260905025426 | 75 | 270 | 2.0 | 5.0 | 0.00 | 0.00 | 0.00 | 42 | 1002.7 |
| 20260905024539 | 75 | 270 | 3.0 | 6.0 | 0.00 | 0.00 | 0.00 | 40 | 1002.6 |
| 20260905023656 | 76 | 270 | 2.0 | 3.0 | 0.00 | 0.00 | 0.00 | 38 | 1002.4 |
| 20260905022825 | 76 | 0 | 0.0 | 1.0 | 0.00 | 0.00 | 0.00 | 38 | 1002.2 |
| 20260905021825 | 77 | 338 | 1.0 | 2.0 | 0.00 | 0.00 | 0.00 | 37 | 1002.0 |
| 20260905020110 | 78 | 0 | 1.0 | 4.0 | 0.00 | 0.00 | 0.00 | 35 | 1001.7 |
| 20260905015241 | 79 | 22 | 1.0 | 3.0 | 0.00 | 0.00 | 0.00 | 35 | 1001.6 |
| 20260905014320 | 80 | 22 | 2.0 | 4.0 | 0.00 | 0.00 | 0.00 | 35 | 1001.5 |
| 20260905011738 | 82 | 22 | 2.0 | 4.0 | 0.00 | 0.00 | 0.00 | 32 | 1001.4 |
| 20260905011636 | 82 | 22 | 2.0 | 4.0 | 0.00 | 0.00 | 0.00 | 32 | 1001.4 |
| 20260905010806 | 83 | 22 | 4.0 | 7.0 | 0.00 | 0.00 | 0.00 | 30 | 1001.3 |
| 20260905005901 | 84 | 45 | 1.0 | 3.0 | 0.00 | 0.00 | 0.00 | 29 | 1001.1 |
| 20260905004935 | 85 | 45 | 1.0 | 3.0 | 0.00 | 0.00 | 0.00 | 27 | 1001.1 |
| 20260905004046 | 86 | 68 | 2.0 | 5.0 | 0.00 | 0.00 | 0.00 | 28 | 1001.0 |
| 20260905002402 | 88 | 90 | 3.0 | 8.0 | 0.00 | 0.00 | 0.00 | 25 | 1000.9 |
| 20260905002231 | 88 | 90 | 3.0 | 8.0 | 0.00 | 0.00 | 0.00 | 25 | 1000.9 |
| 20260905001316 | 89 | 112 | 2.0 | 7.0 | 0.00 | 0.00 | 0.00 | 26 | 1000.9 |
| 20260905000336 | 89 | 68 | 4.0 | 11.0 | 0.00 | 0.00 | 0.00 | 26 | 1000.8 |
| 20260904234536 | 89 | 45 | 2.0 | 10.0 | 0.00 | 0.00 | 0.00 | 25 | 1000.8 |
| 20260904233726 | 90 | 112 | 4.0 | 9.0 | 0.00 | 0.00 | 0.00 | 23 | 1000.8 |
| 20260904231846 | 90 | 112 | 2.0 | 4.0 | 0.00 | 0.00 | 0.00 | 24 | 1000.6 |
| 20260904230945 | 90 | 112 | 2.0 | 6.0 | 0.00 | 0.00 | 0.00 | 23 | 1000.5 |
| 20260904230026 | 90 | 68 | 1.0 | 3.0 | 0.00 | 0.00 | 0.00 | 26 | 1000.6 |
| 20260904224131 | 90 | 135 | 2.0 | 6.0 | 0.00 | 0.00 | 0.00 | 22 | 1000.8 |
| 20260904223241 | 91 | 68 | 3.0 | 7.0 | 0.00 | 0.00 | 0.00 | 20 | 1000.8 |
| 20260904222336 | 91 | 112 | 4.0 | 10.0 | 0.00 | 0.00 | 0.00 | 25 | 1000.9 |
| 20260904221426 | 91 | 112 | 5.0 | 10.0 | 0.00 | 0.00 | 0.00 | 22 | 1000.8 |
| 20260904220551 | 91 | 112 | 5.0 | 12.0 | 0.00 | 0.00 | 0.00 | 23 | 1000.9 |
| 20260904215720 | 91 | 135 | 5.0 | 13.0 | 0.00 | 0.00 | 0.00 | 22 | 1000.9 |
| 20260904214801 | 91 | 90 | 4.0 | 10.0 | 0.00 | 0.00 | 0.00 | 20 | 1001.0 |
| 20260904213941 | 92 | 135 | 5.0 | 15.0 | 0.00 | 0.00 | 0.00 | 20 | 1001.1 |
| 20260904212200 | 92 | 135 | 4.0 | 11.0 | 0.00 | 0.00 | 0.00 | 24 | 1001.2 |
| 20260904211226 | 92 | 68 | 3.0 | 9.0 | 0.00 | 0.00 | 0.00 | 29 | 1001.2 |
| 20260904210411 | 93 | 90 | 4.0 | 9.0 | 0.00 | 0.00 | 0.00 | 23 | 1001.4 |
| 20260904205611 | 94 | 135 | 4.0 | 10.0 | 0.00 | 0.00 | 0.00 | 24 | 1001.5 |
| 20260904204726 | 93 | 158 | 5.0 | 12.0 | 0.00 | 0.00 | 0.00 | 22 | 1001.6 |
| 20260904203846 | 93 | 135 | 6.0 | 13.0 | 0.00 | 0.00 | 0.00 | 27 | 1001.7 |
| 20260904202931 | 93 | 180 | 5.0 | 10.0 | 0.00 | 0.00 | 0.00 | 24 | 1001.8 |
| 20260904202121 | 93 | 158 | 4.0 | 13.0 | 0.00 | 0.00 | 0.00 | 27 | 1001.9 |
| 20260904200140 | 92 | 135 | 5.0 | 12.0 | 0.00 | 0.00 | 0.00 | 26 | 1002.1 |
| 20260904195240 | 91 | 45 | 4.0 | 8.0 | 0.00 | 0.00 | 0.00 | 26 | 1002.2 |
| 20260904194245 | 90 | 45 | 3.0 | 11.0 | 0.00 | 0.00 | 0.00 | 25 | 1002.3 |
| 20260904193300 | 91 | 135 | 4.0 | 10.0 | 0.00 | 0.00 | 0.00 | 23 | 1002.3 |
| 20260904192335 | 90 | 112 | 5.0 | 11.0 | 0.00 | 0.00 | 0.00 | 27 | 1002.3 |
| 20260904191500 | 90 | 135 | 4.0 | 14.0 | 0.00 | 0.00 | 0.00 | 26 | 1002.4 |
| 20260904190520 | 89 | 112 | 4.0 | 11.0 | 0.00 | 0.00 | 0.00 | 25 | 1002.4 |
| 20260904184646 | 89 | 112 | 4.0 | 8.0 | 0.00 | 0.00 | 0.00 | 25 | 1002.6 |
| 20260904183705 | 89 | 135 | 4.0 | 7.0 | 0.00 | 0.00 | 0.00 | 23 | 1002.7 |
| 20260904182710 | 89 | 158 | 3.0 | 7.0 | 0.00 | 0.00 | 0.00 | 30 | 1002.8 |
| 20260904180900 | 88 | 112 | 4.0 | 10.0 | 0.00 | 0.00 | 0.00 | 26 | 1003.1 |
| 20260904175035 | 87 | 135 | 3.0 | 6.0 | 0.00 | 0.00 | 0.00 | 32 | 1003.2 |
| 20260904174135 | 87 | 180 | 2.0 | 6.0 | 0.00 | 0.00 | 0.00 | 29 | 1003.4 |
| 20260904172456 | 85 | 135 | 3.0 | 6.0 | 0.00 | 0.00 | 0.00 | 31 | 1003.6 |
| 20260904171545 | 84 | 135 | 3.0 | 6.0 | 0.00 | 0.00 | 0.00 | 35 | 1003.7 |
| 20260904165640 | 81 | 135 | 3.0 | 6.0 | 0.00 | 0.00 | 0.00 | 43 | 1003.7 |
| 20260904164645 | 81 | 135 | 2.0 | 4.0 | 0.00 | 0.00 | 0.00 | 40 | 1003.9 |
| 20260904163826 | 80 | 135 | 2.0 | 3.0 | 0.00 | 0.00 | 0.00 | 40 | 1003.9 |
| 20260904162900 | 79 | 180 | 1.0 | 3.0 | 0.00 | 0.00 | 0.00 | 38 | 1004.0 |
| 20260904160145 | 74 | 158 | 2.0 | 5.0 | 0.00 | 0.00 | 0.00 | 45 | 1004.0 |
| 20260904155320 | 74 | 225 | 1.0 | 2.0 | 0.00 | 0.00 | 0.00 | 49 | 1004.1 |
| 20260904154515 | 73 | 180 | 1.0 | 2.0 | 0.00 | 0.00 | 0.00 | 48 | 1004.0 |
| 20260904153715 | 73 | 202 | 1.0 | 3.0 | 0.00 | 0.00 | 0.00 | 48 | 1004.1 |
| 20260904151055 | 70 | 180 | 1.0 | 2.0 | 0.00 | 0.00 | 0.00 | 55 | 1004.2 |
| 20260904150151 | 66 | 180 | 1.0 | 3.0 | 0.00 | 0.00 | 0.00 | 56 | 1004.2 |
| 20260904145445 | 64 | 248 | 1.0 | 2.0 | 0.00 | 0.00 | 0.00 | 66 | 1004.3 |
| 20260904145325 | 64 | 248 | 1.0 | 2.0 | 0.00 | 0.00 | 0.00 | 66 | 1004.3 |
| 20260904144333 | 62 | 0 | 0.0 | 2.0 | 0.00 | 0.00 | 0.00 | 67 | 1004.2 |
| 20260904143455 | 60 | 0 | 0.0 | 2.0 | 0.00 | 0.00 | 0.00 | 72 | 1004.2 |
| 20260904141615 | 58 | 225 | 1.0 | 3.0 | 0.00 | 0.00 | 0.00 | 73 | 1004.1 |
| 20260904140815 | 57 | 0 | 0.0 | 1.0 | 0.00 | 0.00 | 0.00 | 74 | 1004.0 |
| 20260904140016 | 56 | 225 | 1.0 | 2.0 | 0.00 | 0.00 | 0.00 | 72 | 1004.0 |
| 20260904135036 | 56 | 0 | 0.0 | 1.0 | 0.00 | 0.00 | 0.00 | 71 | 1003.9 |
| 20260904134220 | 55 | 270 | 1.0 | 3.0 | 0.00 | 0.00 | 0.00 | 72 | 1003.8 |
| 20260904131605 | 55 | 270 | 1.0 | 2.0 | 0.00 | 0.00 | 0.00 | 71 | 1003.4 |
| 20260904130645 | 55 | 270 | 1.0 | 2.0 | 0.00 | 0.00 | 0.00 | 72 | 1003.3 |
| 20260904125730 | 55 | 0 | 0.0 | 1.0 | 0.00 | 0.00 | 0.00 | 72 | 1003.2 |
| 20260904124916 | 55 | 248 | 1.0 | 2.0 | 0.00 | 0.00 | 0.00 | 72 | 1003.1 |
| 20260904123955 | 55 | 0 | 0.0 | 2.0 | 0.00 | 0.00 | 0.00 | 71 | 1003.0 |
| 20260904123036 | 55 | 0 | 0.0 | 1.0 | 0.00 | 0.00 | 0.00 | 71 | 1003.0 |
| 20260904122150 | 55 | 0 | 0.0 | 1.0 | 0.00 | 0.00 | 0.00 | 69 | 1002.9 |
| 20260904121225 | 56 | 0 | 0.0 | 1.0 | 0.00 | 0.00 | 0.00 | 67 | 1002.7 |
| 20260904120345 | 56 | 292 | 1.0 | 2.0 | 0.00 | 0.00 | 0.00 | 67 | 1002.5 |
| 20260904112749 | 57 | 270 | 1.0 | 2.0 | 0.00 | 0.00 | 0.00 | 70 | 1002.2 |
| 20260904111750 | 57 | 0 | 0.0 | 1.0 | 0.00 | 0.00 | 0.00 | 69 | 1002.2 |
| 20260904110840 | 58 | 0 | 0.0 | 0.0 | 0.00 | 0.00 | 0.00 | 69 | 1002.1 |
| 20260904104931 | 59 | 0 | 0.0 | 2.0 | 0.00 | 0.00 | 0.00 | 70 | 1002.0 |